[[{"header":{"parameterUnit":"m.s-1","parameterCategory":1,"la1":30.2991,"la2":30.254,"lo1":-89.0895,"lo2":-89.0444,"dy":0.0017,"dx":0.0017,"nx":28,"ny":28,"refTime":"2025-01-14T09:00:00:Z","depth":0,"parameterNumber":2,"parameterNumberName":"U-component_of_WINDS"},"data":[0,0,0,0,0,0,0,0,0,0,0,0,0,0,0,0,0,0,0,0,0,0,0,0,0,0,0,0,0,0,0,0,0,0,0,0,0,0,0,0,0,0,0,0,0,0,0,0,0,0,0,0,0,0,0,0,0,0,-3.9423,-3.9424,0,-3.9502,-3.9503,-3.9504,-3.9393,-3.9389,-3.9385,-3.9381,-3.9467,-3.9473,-3.9479,0,0,0,0,0,0,0,0,0,0,0,0,0,-3.9179,-3.9184,-3.9423,-3.9424,-3.9425,-3.9502,-3.9503,-3.9504,-3.9394,-3.9389,-3.9384,-3.938,-3.9465,-3.9473,-3.948,0,0,0,0,0,0,0,0,0,0,0,0,0,-3.9274,-3.9185,-3.9422,-3.9379,-3.9376,-3.9502,-3.9503,-3.9504,-3.9395,-3.9389,-3.9383,-3.9377,-3.9463,-3.9472,-3.9481,-3.9655,0,0,-3.9508,-3.9512,0,0,0,0,0,0,0,0,-3.9269,-3.9283,-3.9384,-3.9382,-3.9379,-3.9431,-3.9448,-3.9555,-3.9396,-3.9388,-3.9381,-3.9375,-3.9461,-3.9469,-3.9497,-3.9659,-3.9662,-3.9509,-3.9514,-3.9518,-3.9521,0,0,0,0,0,0,0,-3.9262,-3.9279,-3.9454,-3.9386,-3.9383,-3.9356,-3.9363,-3.9468,-3.9457,-3.9388,-3.938,-3.9391,-3.9458,-3.9489,-3.9499,-3.9664,-3.9509,-3.9517,-3.9522,-3.9526,-3.9971,-3.9977,0,0,0,0,0,0,-3.926,-3.9274,-3.9452,-3.9456,-3.9308,-3.9365,-3.9373,-3.9421,-3.9455,-3.9455,-3.9396,-3.9385,-3.9477,-3.9488,-3.9501,-3.9708,-3.9518,-3.9526,-3.9532,-3.9965,-3.9973,-3.998,0,0,0,0,0,0,-3.9256,-3.9277,-3.9448,-3.9363,-3.9383,-3.9376,-3.943,-3.9425,-3.9456,-3.9461,-3.9459,-3.943,-3.9472,-3.9489,-3.9617,-3.9709,-3.953,-3.9539,-3.9957,-3.9967,-3.9976,-4.0122,0,0,0,0,0,0,-3.9249,-3.9276,-3.9342,-3.9366,-3.9388,-3.9563,-3.9436,-3.9431,-3.9472,-3.9459,-3.9492,-3.9492,-3.9469,-3.9604,-3.9626,-3.9718,-3.9546,-3.9949,-3.9962,-3.9973,-4.0109,-4.0135,-4.0158,0,0,0,0,0,-3.9241,-3.9381,-3.9346,-3.9368,-3.947,-3.9568,-3.9581,-3.9551,-3.9479,-3.9546,-3.9548,-3.9491,-3.9695,-3.9618,-3.9642,-3.9738,-3.9943,-3.9958,-3.9972,-4.0098,-4.013,-4.0157,0,0,0,0,0,0,-3.937,-3.9383,-3.9344,-3.9496,-3.9532,-3.9549,-3.9632,-3.9586,-3.9644,-3.9629,-3.959,-3.9599,-3.9736,-3.9749,-3.9664,-3.9908,-3.9807,-3.9827,-3.9895,-3.9926,-3.995,-3.9945,-3.9553,0,0,0,0,0,-3.9416,-3.9493,-3.9501,-3.9634,-3.9653,-3.964,-3.9682,-3.9655,-3.9691,-3.9706,-3.9718,-3.9756,-3.9828,-3.9877,-3.9944,-4.0109,-4.0115,-4.0187,-4.0211,-4.0232,-4.025,-4.0339,-4.0371,-4.0028,-4.0027,-4.0027,0,0,-3.9512,-3.9529,-3.958,-3.966,-3.9685,-3.9767,-3.9653,-3.9745,-3.9807,-3.972,-3.9842,-3.9852,-3.9892,-4.0039,-4.0105,-4.0055,-4.0346,-4.025,-4.0266,-4.0274,-4.0357,-4.039,-4.0419,-4.0037,-4.0036,-4.0034,0,0,-3.973,-3.975,-3.9862,-3.9889,-3.9926,-3.9916,-3.9943,-3.9967,-3.997,-4.0091,-4.0028,-4.01,-4.0226,-4.0257,-4.0289,-4.0516,-4.0466,-4.0539,-4.0669,-4.0756,-4.0783,-4.0806,-4.0889,-4.0919,-4.0557,-4.0557,-4.0558,0,-3.9845,-3.9966,-3.9927,-4.0023,-4.0061,-3.9983,-4.0098,-4.0126,-4.0184,-4.0212,-4.0154,-4.031,-4.0331,-4.0485,-4.054,-4.0569,-4.0599,-4.0537,-4.0781,-4.0805,-4.0827,-4.0905,-4.0936,-4.0566,-4.0565,-4.0564,-4.0563,0,-4.0106,-4.0191,-4.0277,-4.0334,-4.0381,-4.0486,-4.0464,-4.0516,-4.0485,-4.0481,-4.0605,-4.0627,-4.0698,-4.0731,-4.0702,-4.0882,-4.0849,-4.0787,-4.0686,-4.0869,-4.0942,-4.0971,-4.0579,-4.0576,-4.0573,-4.0571,0,0,-4.0411,-4.0442,-4.0475,-4.05,-4.0534,-4.0599,-4.0701,-4.0767,-4.0814,-4.0856,-4.0941,-4.1048,-4.099,-4.1027,-4.1,-4.1076,-4.1256,-4.1004,-4.1005,-4.1052,-4.1456,-4.1504,-4.1539,-4.1221,-4.1227,-4.1231,-4.1453,0,-4.0629,-4.0803,-4.077,-4.0941,-4.1019,-4.0945,-4.1034,-4.1065,-4.1064,-4.113,-4.1129,-4.1206,-4.1123,-4.1145,-4.1216,-4.1219,-4.1337,-4.1202,-4.1302,-4.1306,-4.1297,-4.1577,-4.1628,-4.1836,-4.1481,-4.1486,-4.1489,0,-4.0908,-4.0958,-4.1137,-4.1158,-4.1189,-4.1269,-4.1327,-4.1391,-4.1425,-4.1419,-4.1459,-4.1418,-4.1519,-4.1414,-4.1555,-4.1464,-4.1502,-4.151,-4.1517,-4.1527,-4.1411,-4.1597,-4.1902,-4.1934,-4.1533,-4.153,-4.1527,0,-4.1114,-4.1226,-4.1347,-4.137,-4.1398,-4.1456,-4.1471,-4.1498,-4.154,-4.1591,-4.1618,-4.1681,-4.1716,-4.1766,-4.1743,-4.1668,-4.1889,-4.1781,-4.1887,-4.1889,-4.1939,-4.1937,-4.2258,-4.1961,-4.1961,-4.196,-4.1959,0,-4.1362,-4.1475,-4.144,-4.1515,-4.1638,-4.1599,-4.1723,-4.1729,-4.1754,-4.1829,-4.1769,-4.1841,-4.1805,-4.1875,-4.1858,-4.1977,-4.1993,-4.1992,-4.1986,-4.1999,-4.1999,-4.2025,-4.2011,-4.1968,-4.1966,-4.1965,-4.1963,0,-4.1615,-4.1596,-4.1723,-4.1738,-4.1744,-4.1835,-4.1848,-4.1918,-4.191,-4.2006,-4.2027,-4.2016,-4.2095,-4.2076,-4.2163,-4.2151,-4.2302,-4.2277,-4.2291,-4.2285,-4.2393,-4.2384,-4.2744,-4.2789,-4.2462,-4.2465,-4.2467,0,-4.1776,-4.186,-4.1883,-4.1928,-4.1947,-4.2021,-4.2063,-4.2027,-4.2073,-4.2117,-4.2183,-4.2256,-4.2312,-4.2442,-4.2443,-4.2509,-4.2487,-4.2608,-4.2496,-4.2506,-4.249,-4.2487,-4.2495,-4.2631,-4.2635,-4.2638,-4.264,0,-4.2065,-4.205,-4.2112,-4.2171,-4.2222,-4.2267,-4.2307,-4.2348,-4.2315,-4.237,-4.2449,-4.2493,-4.258,-4.2654,-4.2714,-4.273,-4.2681,-4.2675,-4.2703,-4.2718,-4.2723,-4.2723,-4.2353,-4.2668,-4.2665,-4.2663,-4.2661,-4.266,-4.2277,-4.2349,-4.2376,-4.2447,-4.2472,-4.251,-4.2576,-4.2576,-4.2641,-4.2708,-4.2683,-4.2774,-4.2805,-4.288,-4.2903,-4.2974,-4.2929,-4.297,-4.298,-4.2992,-4.3006,-4.2709,-4.2985,-4.2984,-4.2983,-4.2983,-4.2982,0,-4.2564,-4.2577,-4.2642,-4.2698,-4.2754,-4.27,-4.274,-4.2791,-4.2871,-4.2903,-4.296,-4.3051,-4.3121,-4.3127,-4.3193,-4.3249,-4.3229,-4.3268,-4.3265,-4.327,-4.3042,-4.3011,-4.3284,-4.3284,-4.3284,-4.3284,-4.3284,-4.3284,-4.272,-4.2838,-4.2827,-4.2957,-4.2969,-4.3056,-4.3084,-4.3119,-4.3144,-4.3248,-4.3306,-4.3307,-4.3329,-4.3397,-4.346,-4.3459,-4.3488,-4.3537,-4.3528,-4.3316,-4.3286,-4.3257,-4.3228,-4.3542,-4.3543,-4.375,-4.3752,-4.3754]},{"header":{"parameterUnit":"m.s-1","parameterCategory":1,"la1":30.2991,"la2":30.254,"lo1":-89.0895,"lo2":-89.0444,"dy":0.0017,"dx":0.0017,"nx":28,"ny":28,"refTime":"2025-01-14T09:00:00:Z","depth":0,"parameterNumber":3,"parameterNumberName":"V-component_of_WINDS"},"data":[0,0,0,0,0,0,0,0,0,0,0,0,0,0,0,0,0,0,0,0,0,0,0,0,0,0,0,0,0,0,0,0,0,0,0,0,0,0,0,0,0,0,0,0,0,0,0,0,0,0,0,0,0,0,0,0,0,0,-3.724,-3.724,0,-3.7264,-3.7264,-3.7265,-3.7212,-3.721,-3.7209,-3.7207,-3.7232,-3.7234,-3.7236,0,0,0,0,0,0,0,0,0,0,0,0,0,-3.7145,-3.7147,-3.724,-3.724,-3.724,-3.7264,-3.7264,-3.7265,-3.7212,-3.721,-3.7208,-3.7206,-3.7231,-3.7233,-3.7236,0,0,0,0,0,0,0,0,0,0,0,0,0,-3.718,-3.7148,-3.724,-3.7217,-3.7215,-3.7264,-3.7264,-3.7265,-3.7213,-3.721,-3.7208,-3.7205,-3.723,-3.7233,-3.7237,-3.7308,0,0,-3.7247,-3.7248,0,0,0,0,0,0,0,0,-3.7178,-3.7183,-3.722,-3.7219,-3.7217,-3.7232,-3.724,-3.7279,-3.7213,-3.7214,-3.7207,-3.7204,-3.7234,-3.7237,-3.7247,-3.731,-3.7311,-3.7247,-3.7249,-3.7251,-3.7252,0,0,0,0,0,0,0,-3.7176,-3.7182,-3.7249,-3.7221,-3.7219,-3.7205,-3.7207,-3.7247,-3.7238,-3.7213,-3.721,-3.7213,-3.7232,-3.7244,-3.7247,-3.7311,-3.7247,-3.725,-3.7252,-3.7253,-3.7431,-3.7433,0,0,0,0,0,0,-3.7176,-3.718,-3.7249,-3.725,-3.7191,-3.7209,-3.7211,-3.723,-3.7237,-3.7236,-3.7215,-3.7211,-3.7239,-3.7243,-3.7248,-3.7331,-3.7251,-3.7254,-3.7256,-3.7428,-3.7431,-3.7434,0,0,0,0,0,0,-3.7174,-3.7183,-3.7248,-3.7214,-3.7221,-3.7213,-3.7235,-3.7232,-3.7243,-3.7239,-3.7237,-3.7229,-3.7237,-3.7243,-3.7293,-3.7331,-3.7255,-3.7258,-3.7425,-3.7429,-3.7433,-3.7498,0,0,0,0,0,0,-3.7172,-3.7183,-3.721,-3.7215,-3.7223,-3.7293,-3.7237,-3.7234,-3.7249,-3.7243,-3.7251,-3.725,-3.7236,-3.7288,-3.7296,-3.7334,-3.7261,-3.7422,-3.7427,-3.7432,-3.7492,-3.7504,-3.7514,0,0,0,0,0,-3.7169,-3.7228,-3.7212,-3.7221,-3.7258,-3.7296,-3.73,-3.7283,-3.7252,-3.728,-3.7276,-3.7249,-3.7325,-3.7294,-3.7303,-3.7342,-3.7419,-3.7425,-3.7431,-3.7488,-3.7502,-3.7513,0,0,0,0,0,0,-3.7229,-3.7229,-3.7211,-3.7274,-3.7285,-3.7287,-3.7321,-3.7299,-3.7319,-3.7313,-3.7291,-3.7293,-3.7347,-3.7349,-3.7314,-3.741,-3.7367,-3.7375,-3.7407,-3.742,-3.743,-3.7428,-3.7264,0,0,0,0,0,-3.7249,-3.728,-3.7278,-3.7334,-3.734,-3.733,-3.7346,-3.7331,-3.7342,-3.7347,-3.7347,-3.7359,-3.7385,-3.7403,-3.7427,-3.7493,-3.7492,-3.7524,-3.7534,-3.7543,-3.755,-3.7583,-3.7596,-3.7454,-3.7454,-3.7454,0,0,-3.7292,-3.7296,-3.7317,-3.7346,-3.7353,-3.7385,-3.7334,-3.737,-3.7393,-3.7352,-3.7399,-3.74,-3.7411,-3.7469,-3.7494,-3.7472,-3.7589,-3.755,-3.7557,-3.756,-3.759,-3.7604,-3.7616,-3.7458,-3.7458,-3.7457,0,0,-3.7386,-3.7393,-3.7438,-3.7446,-3.7457,-3.7449,-3.746,-3.7465,-3.7464,-3.7511,-3.748,-3.7506,-3.7552,-3.7561,-3.7571,-3.7666,-3.7641,-3.7674,-3.7729,-3.7761,-3.7772,-3.7782,-3.7814,-3.7826,-3.7681,-3.7681,-3.7682,0,-3.7438,-3.7484,-3.7465,-3.7502,-3.7515,-3.7479,-3.7524,-3.7533,-3.7552,-3.7561,-3.7536,-3.7592,-3.7597,-3.7655,-3.7678,-3.7688,-3.7699,-3.7673,-3.7772,-3.7782,-3.7791,-3.7821,-3.7834,-3.7685,-3.7685,-3.7684,-3.7684,0,-3.7546,-3.7579,-3.7615,-3.7633,-3.765,-3.7691,-3.7677,-3.7696,-3.768,-3.7675,-3.7721,-3.7726,-3.7749,-3.7762,-3.7747,-3.7818,-3.7804,-3.7776,-3.7732,-3.7808,-3.7837,-3.7848,-3.7691,-3.7689,-3.7688,-3.7687,0,0,-3.768,-3.7685,-3.7698,-3.7705,-3.7713,-3.7738,-3.7777,-3.7799,-3.7815,-3.7829,-3.786,-3.7899,-3.7873,-3.7885,-3.787,-3.7899,-3.7971,-3.7867,-3.7867,-3.7885,-3.8047,-3.8067,-3.8081,-3.7955,-3.7957,-3.7959,-3.8046,0,-3.7771,-3.7838,-3.7821,-3.7887,-3.7916,-3.7881,-3.7914,-3.7923,-3.7918,-3.7941,-3.7936,-3.7964,-3.7928,-3.7934,-3.7961,-3.7957,-3.8003,-3.795,-3.7983,-3.7984,-3.798,-3.8096,-3.8117,-3.8199,-3.8057,-3.8059,-3.806,0,-3.7888,-3.7904,-3.7973,-3.7975,-3.7986,-3.8017,-3.8035,-3.8058,-3.8066,-3.806,-3.8073,-3.8052,-3.8089,-3.8045,-3.8095,-3.8059,-3.8071,-3.8071,-3.8074,-3.8075,-3.8026,-3.81,-3.8225,-3.8237,-3.8077,-3.8076,-3.8075,0,-3.7976,-3.8016,-3.8062,-3.8069,-3.8072,-3.8094,-3.8097,-3.8102,-3.8116,-3.8131,-3.814,-3.816,-3.8171,-3.8186,-3.8171,-3.814,-3.8222,-3.8177,-3.8218,-3.8218,-3.8237,-3.8236,-3.8365,-3.8246,-3.8246,-3.8246,-3.8246,0,-3.8079,-3.8123,-3.8101,-3.8129,-3.8176,-3.8155,-3.8202,-3.82,-3.8205,-3.8231,-3.8202,-3.8228,-3.8206,-3.8229,-3.8217,-3.826,-3.8265,-3.8261,-3.8257,-3.8263,-3.8263,-3.827,-3.8264,-3.8249,-3.8248,-3.8248,-3.8247,0,-3.8186,-3.8174,-3.8221,-3.822,-3.822,-3.8254,-3.8253,-3.8278,-3.8271,-3.8305,-3.8311,-3.83,-3.8326,-3.8312,-3.8338,-3.833,-3.8385,-3.8374,-3.8382,-3.8378,-3.8419,-3.8415,-3.8557,-3.8573,-3.8445,-3.8446,-3.8448,0,-3.8253,-3.8285,-3.8286,-3.8302,-3.8306,-3.8331,-3.8345,-3.8325,-3.834,-3.835,-3.8374,-3.8397,-3.8414,-3.8456,-3.845,-3.847,-3.8458,-3.8506,-3.8461,-3.8465,-3.8457,-3.8455,-3.8457,-3.8515,-3.8517,-3.8518,-3.8519,0,-3.8371,-3.8363,-3.8383,-3.8401,-3.8418,-3.8431,-3.8442,-3.8456,-3.8436,-3.8454,-3.8479,-3.8493,-3.8519,-3.8542,-3.8558,-3.856,-3.8536,-3.8533,-3.8544,-3.855,-3.8552,-3.855,-3.8405,-3.853,-3.8529,-3.8528,-3.8528,-3.8527,-3.8459,-3.8485,-3.8489,-3.8513,-3.8518,-3.8528,-3.8551,-3.8546,-3.8567,-3.8587,-3.8573,-3.8603,-3.8608,-3.8628,-3.8632,-3.8655,-3.8635,-3.8651,-3.8654,-3.8658,-3.8663,-3.855,-3.8658,-3.8657,-3.8657,-3.8657,-3.8657,0,-3.8575,-3.8575,-3.8597,-3.8612,-3.863,-3.8605,-3.8615,-3.8632,-3.8658,-3.8665,-3.8682,-3.871,-3.8731,-3.8726,-3.8745,-3.8764,-3.8753,-3.8769,-3.8767,-3.8768,-3.868,-3.8668,-3.8778,-3.8777,-3.8777,-3.8777,-3.8777,-3.8777,-3.8637,-3.8679,-3.8671,-3.8715,-3.8715,-3.8743,-3.8751,-3.876,-3.8765,-3.8797,-3.8814,-3.8811,-3.8812,-3.8831,-3.8849,-3.8847,-3.8855,-3.8875,-3.8868,-3.8786,-3.8774,-3.8763,-3.8752,-3.8877,-3.8877,-3.8954,-3.8955,-3.8955]}]]